Nur fliegen ist schöner ....

Willkommen beim Flugservice Bautzen GmbH

Wir sind eine nach europäischen Richtlinien zugelassene Flugschule und lizenziertes Luftfahrtunternehmen. Bei uns können sie nicht nur Rundflüge über die Oberlausitz oder Sachsen buchen, sondern in unserer Flugschule selber das Fliegen erlernen. Erfahrene Fluglehrer stehen Ihnen dabei zur Seite.

Wir bieten Ihnen außerdem spezielle Flüge zur Vermessung oder Fotoflüge für Luftbildaufnahmen an. In Zusammenarbeit mit dem Fallschirmsportclub Dresden und dem Cottbuser Fallschirmsportclub setzen wir am Flugplatz Bautzen und Neuhausen Fallschirmspringer ab.
Schauen Sie sich in Ruhe bei uns um und wenn Sie Fragen haben oder weitere Informationen benötigen, scheuen Sie sich nicht Kontakt mit uns aufzunehmen.

Gutscheine für Rundflüge und Tandemsprünge können Sie ganz leicht auch online in unserem Shop erwerben.

Terminkalender

Letzter Monat Mai 2019 Nächster Monat
Mo Di Mi Do Fr Sa So
week 18 1 2 3 4 5
week 19 6 7 8 9 10 11 12
week 20 13 14 15 16 17 18 19
week 21 20 21 22 23 24 25 26
week 22 27 28 29 30 31

Flugwetterinfo

[Quelle: ADDS]
METAR
EDDC 221120Z 30010KT 270V340 7000 -RA BKN007 11/10 Q1014 NOSIG =
EDDC 221100Z 2212/2312 30010KT 9999 BKN007 PROB30 TEMPO 2212/2219 3500 -RA PROB30 TEMPO 2214/2216 30015G25KT TEMPO 2214/2218 SCT008 BKN012 BECMG 2218/2222 FEW030
TAF
EDDC 221100Z 2212/2312 30010KT 9999 BKN007 PROB30 TEMPO 2212/2219 3500 -RA PROB30 TEMPO 2214/2216 30015G25KT TEMPO 2214/2218 SCT008 BKN012 BECMG 2218/2222 FEW030 =
SR / SS: 03:01 / 18:55 UTC (EDAB Flugplatz Bautzen 2019-05-22)

Öffnungszeiten

des Flugplatzes Bautzen erfahren Sie hier:

flugplatz bautzen logo
Flugservice Bautzen GmbH, Kornmarkt 34, 02625 Bautzen  Telefon: +49 (3591) 211105, Telefax: +49 (3591) 274512, E-Mail:  flugservice(at)fsbautzen.de